| time (UTC) | temp F | wind direction | speed MPH | gust MPH | rain 1hr in | rain 24hr in | rain mn in | humidity % | barometer mb |
| 20260504191909 | 76 | 238 | 11.0 | 14.0 | 0.00 | 0.00 | 0.00 | 25 | 1010.7 |
| 20260504190926 | 77 | 207 | 9.0 | 14.0 | 0.00 | 0.00 | 0.00 | 24 | 1010.9 |
| 20260504190811 | 77 | 182 | 7.0 | 13.0 | 0.00 | 0.00 | 0.00 | 24 | 1010.8 |
| 20260504185910 | 78 | 211 | 10.0 | 16.0 | 0.00 | 0.00 | 0.00 | 23 | 1010.7 |
| 20260504184928 | 79 | 101 | 1.0 | 4.0 | 0.00 | 0.00 | 0.00 | 22 | 1010.9 |
| 20260504183911 | 78 | 191 | 8.0 | 13.0 | 0.00 | 0.00 | 0.00 | 21 | 1011.3 |
| 20260504181010 | 77 | 127 | 3.0 | 6.0 | 0.00 | 0.00 | 0.00 | 26 | 1011.5 |
| 20260504180929 | 77 | 121 | 4.0 | 8.0 | 0.00 | 0.00 | 0.00 | 26 | 1011.5 |
| 20260504175927 | 76 | 22 | 3.0 | 6.0 | 0.00 | 0.00 | 0.00 | 28 | 1011.5 |
| 20260504174926 | 76 | 104 | 2.0 | 5.0 | 0.00 | 0.00 | 0.00 | 28 | 1011.8 |
| 20260504173913 | 76 | 98 | 0.0 | 2.0 | 0.00 | 0.00 | 0.00 | 30 | 1011.9 |
| 20260504172928 | 75 | 157 | 0.0 | 1.0 | 0.00 | 0.00 | 0.00 | 30 | 1011.9 |
| 20260504171946 | 75 | 157 | 1.0 | 4.0 | 0.00 | 0.00 | 0.00 | 32 | 1011.9 |
| 20260504171030 | 74 | 191 | 2.0 | 4.0 | 0.00 | 0.00 | 0.00 | 32 | 1012.0 |
| 20260504160329 | 72 | 157 | 4.0 | 8.0 | 0.00 | 0.00 | 0.00 | 36 | 1012.2 |
| 20260504160249 | 72 | 160 | 1.0 | 7.0 | 0.00 | 0.00 | 0.00 | 37 | 1012.2 |
| 20260504150231 | 68 | 83 | 2.0 | 4.0 | 0.00 | 0.00 | 0.00 | 43 | 1012.1 |
| 20260504141230 | 60 | 292 | 0.0 | 0.0 | 0.00 | 0.00 | 0.00 | 56 | 1012.7 |
| 20260504140245 | 60 | 292 | 0.0 | 1.0 | 0.00 | 0.00 | 0.00 | 57 | 1012.8 |
| 20260504110429 | 61 | 344 | 1.0 | 1.0 | 0.00 | 0.00 | 0.00 | 54 | 1012.0 |
| 20260504081829 | 62 | 296 | 2.0 | 4.0 | 0.00 | 0.00 | 0.00 | 48 | 1012.5 |
| 20260504060145 | 68 | 270 | 2.0 | 4.0 | 0.00 | 0.00 | 0.00 | 38 | 1012.1 |
| 20260504045423 | 69 | 81 | 2.0 | 7.0 | 0.00 | 0.00 | 0.00 | 36 | 1012.1 |
| 20260504044439 | 69 | 66 | 4.0 | 7.0 | 0.00 | 0.00 | 0.00 | 36 | 1011.9 |
| 20260504043440 | 69 | 111 | 1.0 | 3.0 | 0.00 | 0.00 | 0.00 | 34 | 1012.4 |
| 20260504042423 | 69 | 80 | 2.0 | 7.0 | 0.00 | 0.00 | 0.00 | 34 | 1011.6 |
| 20260504042325 | 70 | 138 | 1.0 | 7.0 | 0.00 | 0.00 | 0.00 | 34 | 1011.6 |
| 20260504042223 | 70 | 21 | 2.0 | 7.0 | 0.00 | 0.00 | 0.00 | 34 | 1011.5 |
| 20260504041223 | 70 | 107 | 0.0 | 2.0 | 0.00 | 0.00 | 0.00 | 32 | 1011.6 |
| 20260504040223 | 71 | 67 | 0.0 | 1.0 | 0.00 | 0.00 | 0.00 | 32 | 1011.5 |
| 20260504035240 | 71 | 74 | 4.0 | 6.0 | 0.00 | 0.00 | 0.00 | 32 | 1011.4 |
| 20260504034239 | 72 | 27 | 6.0 | 11.0 | 0.00 | 0.00 | 0.00 | 32 | 1011.2 |
| 20260504034122 | 72 | 31 | 4.0 | 8.0 | 0.00 | 0.00 | 0.00 | 32 | 1011.1 |
| 20260504033222 | 72 | 62 | 5.0 | 8.0 | 0.00 | 0.00 | 0.00 | 32 | 1011.1 |
| 20260504030424 | 73 | 63 | 4.0 | 8.0 | 0.00 | 0.00 | 0.00 | 32 | 1010.7 |
| 20260504025423 | 73 | 64 | 11.0 | 17.0 | 0.00 | 0.00 | 0.00 | 31 | 1010.6 |
| 20260504024439 | 74 | 56 | 4.0 | 8.0 | 0.00 | 0.00 | 0.00 | 30 | 1010.5 |
| 20260504023524 | 74 | 62 | 9.0 | 12.0 | 0.00 | 0.00 | 0.00 | 28 | 1010.4 |
| 20260504022521 | 75 | 77 | 8.0 | 16.0 | 0.00 | 0.00 | 0.00 | 26 | 1010.2 |
| 20260504021538 | 76 | 109 | 4.0 | 6.0 | 0.00 | 0.00 | 0.00 | 23 | 1010.3 |
| 20260504015541 | 77 | 94 | 4.0 | 4.0 | 0.00 | 0.00 | 0.00 | 23 | 1009.9 |
| 20260504014538 | 77 | 157 | 0.0 | 1.0 | 0.00 | 0.00 | 0.00 | 22 | 1009.8 |
| 20260504013538 | 77 | 128 | 2.0 | 3.0 | 0.00 | 0.00 | 0.00 | 22 | 1009.5 |
| 20260504012524 | 77 | 223 | 7.0 | 10.0 | 0.00 | 0.00 | 0.00 | 22 | 1010.2 |
| 20260504011521 | 78 | 191 | 5.0 | 8.0 | 0.00 | 0.00 | 0.00 | 23 | 1010.1 |
| 20260504010525 | 78 | 127 | 2.0 | 7.0 | 0.00 | 0.00 | 0.00 | 22 | 1010.0 |
| 20260504005540 | 79 | 91 | 8.0 | 14.0 | 0.00 | 0.00 | 0.00 | 21 | 1009.4 |
| 20260504004523 | 80 | 124 | 8.0 | 14.0 | 0.00 | 0.00 | 0.00 | 19 | 1010.2 |
| 20260504003540 | 79 | 118 | 5.0 | 8.0 | 0.00 | 0.00 | 0.00 | 19 | 1010.1 |
| 20260504002524 | 79 | 114 | 1.0 | 4.0 | 0.00 | 0.00 | 0.00 | 19 | 1010.1 |
| 20260504001523 | 80 | 129 | 4.0 | 6.0 | 0.00 | 0.00 | 0.00 | 17 | 1010.1 |
| 20260504000523 | 80 | 238 | 1.0 | 4.0 | 0.00 | 0.00 | 0.00 | 17 | 1010.3 |
| 20260503235622 | 79 | 53 | 2.0 | 6.0 | 0.00 | 0.00 | 0.00 | 18 | 1009.8 |
| 20260503233622 | 80 | 123 | 5.0 | 14.0 | 0.00 | 0.00 | 0.00 | 18 | 1010.0 |
| 20260503232640 | 80 | 115 | 8.0 | 14.0 | 0.00 | 0.00 | 0.00 | 17 | 1009.9 |
| 20260503231639 | 82 | 140 | 12.0 | 24.0 | 0.00 | 0.00 | 0.00 | 14 | 1009.6 |
| 20260503230637 | 83 | 111 | 5.0 | 10.0 | 0.00 | 0.00 | 0.00 | 13 | 1009.0 |
| 20260503224738 | 84 | 175 | 3.0 | 5.0 | 0.00 | 0.00 | 0.00 | 13 | 1008.8 |
| 20260503223821 | 85 | 127 | 3.0 | 4.0 | 0.00 | 0.00 | 0.00 | 12 | 1008.9 |
| 20260503222840 | 86 | 147 | 4.0 | 5.0 | 0.00 | 0.00 | 0.00 | 12 | 1009.0 |
| 20260503221923 | 86 | 145 | 0.0 | 1.0 | 0.00 | 0.00 | 0.00 | 12 | 1009.2 |
| 20260503220924 | 87 | 149 | 3.0 | 5.0 | 0.00 | 0.00 | 0.00 | 11 | 1009.5 |
| 20260503215940 | 87 | 204 | 5.0 | 7.0 | 0.00 | 0.00 | 0.00 | 11 | 1009.5 |
| 20260503214922 | 87 | 157 | 3.0 | 4.0 | 0.00 | 0.00 | 0.00 | 11 | 1009.8 |
| 20260503213924 | 86 | 292 | 1.0 | 2.0 | 0.00 | 0.00 | 0.00 | 10 | 1010.1 |
| 20260503212921 | 86 | 225 | 1.0 | 2.0 | 0.00 | 0.00 | 0.00 | 11 | 1010.4 |
| 20260503211940 | 88 | 267 | 4.0 | 7.0 | 0.00 | 0.00 | 0.00 | 11 | 1010.6 |
| 20260503210938 | 88 | 203 | 6.0 | 9.0 | 0.00 | 0.00 | 0.00 | 11 | 1010.7 |
| 20260503205921 | 89 | 208 | 6.0 | 11.0 | 0.00 | 0.00 | 0.00 | 11 | 1011.1 |
| 20260503204940 | 88 | 201 | 3.0 | 5.0 | 0.00 | 0.00 | 0.00 | 11 | 1011.1 |
| 20260503204021 | 87 | 337 | 2.0 | 3.0 | 0.00 | 0.00 | 0.00 | 11 | 1011.5 |
| 20260503203121 | 90 | 159 | 5.0 | 8.0 | 0.00 | 0.00 | 0.00 | 10 | 1011.7 |
| 20260503203022 | 89 | 201 | 5.0 | 7.0 | 0.00 | 0.00 | 0.00 | 11 | 1011.7 |
| 20260503202039 | 87 | 284 | 0.0 | 2.0 | 0.00 | 0.00 | 0.00 | 11 | 1011.9 |
| 20260503201124 | 86 | 303 | 1.0 | 4.0 | 0.00 | 0.00 | 0.00 | 12 | 1012.0 |
| 20260503200137 | 86 | 174 | 4.0 | 8.0 | 0.00 | 0.00 | 0.00 | 12 | 1012.2 |
| 20260503195139 | 87 | 205 | 3.0 | 5.0 | 0.00 | 0.00 | 0.00 | 11 | 1012.5 |
| 20260503195040 | 87 | 225 | 4.0 | 5.0 | 0.00 | 0.00 | 0.00 | 11 | 1012.6 |
| 20260503194124 | 87 | 252 | 2.0 | 6.0 | 0.00 | 0.00 | 0.00 | 11 | 1012.8 |
| 20260503193137 | 88 | 195 | 0.0 | 2.0 | 0.00 | 0.00 | 0.00 | 11 | 1012.9 |
| 20260503192124 | 87 | 179 | 5.0 | 7.0 | 0.00 | 0.00 | 0.00 | 11 | 1013.1 |